Tracking 19562 objects as of 24-Mar-2019
HD Live streaming from Space Station
objects crossing your sky now

AEROCUBE 7C

Track AEROCUBE 7C now!
10-day predictions


NORAD ID: 43043
Int'l Code: 2017-071G
Perigee: 448.4 km
Apogee: 454.5 km
Inclination: 51.6 °
Period: 93.5 minutes
Semi major axis: 6822 km
RCS: Unknown
Launch date: November 12, 2017
Source: United States (US)
Launch site: WALLOPS ISLAND (WLPIS)
aabbcc
Your satellite tracking list
Your tracking list is empty




NASA's NSSDC Master Catalog

Two Line Element Set (TLE):
1 43043U 17071G   19083.50802440  .00001985  00000-0  57818-4 0  9990
2 43043  51.6379 114.1097 0004493 200.4989 159.5816 15.40599290 72763
Source of the keplerian elements: AFSPC